Погода в Ховде

Монголия     47°59′59″N   91°38′48″E
темп.,
°C
ветер,
м/с
пор.,
м/с
влажн.,
%
обл.,
%
осадки,
мм/ч
давл.,
гПа
погр.,
м
10 августа, ср
ср1023:00+20ссв114424 0.1 100611
02:00+19з11470 0.1 100611
05:00+18зюз33440 0.0 100615
08:00+18зюз224248 0.0 100740
11:00+23св22300 0.0 1006947
14:00+27всв5322100 0.0 10051795
17:00+28в4219100 0.0 10041807
20:00+26в2320100 0.0 1003726
11 августа, чт
чт1123:00+22всв4931100 0.0 1006337
02:00+22сз3330100 0.0 100799
05:00+20з1134100 0.0 100713
08:00+20ююз023572 0.0 1008254
11:00+22всв333174 0.0 10091395
14:00+25в3226100 0.0 10071903
17:00+27в4323100 0.0 10052385
20:00+26в3324100 0.0 1004954
12 августа, пт
пт1223:00+22всв26363 0.0 1006317
02:00+19ю11434 0.0 100711
05:00+18юв3354100 0.0 100832
08:00+18ю115294 0.0 100877
11:00+22с333487 0.0 1007950
14:00+26св3618100 0.0 10042545
17:00+28всв261489 0.0 10023685
20:00+27з2614100 0.0 10013010
13 августа, сб
сб1323:00+22с3630100 0.0 1005359
02:00+19ююв3339100 0.0 100747
05:00+16ююв225294 0.0 100711
08:00+17юв2250100 0.0 1008105
11:00+20вюв2237100 0.0 1007708
14:00+24в43241 0.0 10041465
17:00+25юв652052 0.0 10031884
20:00+24ссз662462 0.1 1004913
14 августа, вс
вс1423:00+19всв12408 0.1 1008167
02:00+17сз11443 0.1 100811
05:00+16юз22455 0.0 100811
08:00+16юз33400 0.0 100969
11:00+22зсз12260 0.0 10071266
14:00+26в35170 0.0 10052712
17:00+27вюв56150 0.0 10021938
20:00+25в33173 0.0 1003342